[[{"header":{"parameterUnit":"m.s-1","parameterCategory":1,"la1":30.2992,"la2":30.254,"lo1":-89.0895,"lo2":-89.0443,"dy":0.0025,"dx":0.0025,"nx":19,"ny":19,"refTime":"2026-05-08T21:00:00:Z","depth":0,"parameterNumber":2,"parameterNumberName":"U-component_of_WINDS"},"data":[0,0,0,-5.2445,-5.245,-5.2667,-5.2668,-5.2958,-5.2961,0,0,0,0,0,0,0,0,0,0,0,-5.239,-5.2392,-5.2444,-5.245,-5.2667,-5.2668,-5.2958,-5.2961,0,0,0,0,0,0,0,0,0,0,0,-5.2389,-5.2392,-5.2395,-5.2451,-5.2667,-5.2668,-5.2957,-5.2788,0,0,0,0,0,0,0,0,0,0,-5.2575,-5.2535,-5.2391,-5.2395,-5.2452,-5.2667,-5.2668,-5.278,-5.2799,-5.2866,0,-5.293,0,-5.295,-5.2981,-5.2982,0,0,0,-5.2442,-5.2519,-5.2569,-5.2395,-5.2454,-5.2666,-5.2567,-5.279,-5.2812,-5.2891,-5.2934,-5.2944,-5.2955,-5.2983,-5.2985,-5.3401,-5.3403,0,0,-5.243,-5.2434,-5.2554,-5.2583,-5.2553,-5.256,-5.2574,-5.2803,-5.2849,-5.2935,-5.2951,-5.296,-5.2985,-5.2988,-5.3399,-5.3402,0,0,0,-5.2401,-5.2426,-5.247,-5.2572,-5.261,-5.2566,-5.2582,-5.2839,-5.2853,-5.2954,-5.2963,-5.2987,-5.2991,-5.3397,-5.34,-5.3519,0,0,0,-5.2393,-5.2409,-5.2465,-5.247,-5.2606,-5.2728,-5.2614,-5.2837,-5.2863,-5.2962,-5.2987,-5.2994,-5.3394,-5.3398,-5.351,-5.3575,0,0,0,-5.2373,-5.2406,-5.2441,-5.2469,-5.2563,-5.2724,-5.2751,-5.2843,-5.2869,-5.2983,-5.2995,-5.3392,-5.3398,-5.3503,-5.3562,-5.3687,0,0,0,-5.2351,-5.2544,-5.2443,-5.2661,-5.2561,-5.2796,-5.2749,-5.2924,-5.3035,-5.2989,-5.3394,-5.34,-5.35,-5.3554,-5.3678,-5.3793,-5.3841,0,0,-5.2596,-5.2573,-5.2701,-5.2618,-5.2872,-5.2762,-5.3033,-5.3131,-5.3137,-5.3312,-5.3322,-5.3513,-5.3561,-5.3685,-5.4105,-5.4143,0,0,0,-5.278,-5.2872,-5.2939,-5.3046,-5.3125,-5.3198,-5.3254,-5.329,-5.3438,-5.3228,-5.3591,-5.3619,-5.3691,-5.3746,-5.3779,-5.384,-5.3425,-5.3424,-5.3424,-5.3134,-5.3132,-5.3343,-5.3368,-5.3471,-5.3526,-5.361,-5.3667,-5.3634,-5.3719,-5.3772,-5.4028,-5.4092,-5.4116,-5.418,-5.3831,-5.3832,-5.3832,-5.3832,-5.3493,-5.3624,-5.3575,-5.3763,-5.3759,-5.3916,-5.3975,-5.3946,-5.4091,-5.3988,-5.4051,-5.394,-5.4158,-5.4214,-5.3841,-5.384,-5.3839,-5.3838,-5.3837,-5.3726,-5.3789,-5.3829,-5.3982,-5.41,-5.4116,-5.4258,-5.4248,-5.424,-5.4302,-5.4357,-5.4355,-5.4353,-5.4329,-5.433,-5.433,-5.4331,-5.4332,-5.4332,-5.3953,-5.3994,-5.4116,-5.4215,-5.4282,-5.4368,-5.4423,-5.4488,-5.4557,-5.4539,-5.4539,-5.4498,-5.4179,-5.41,-5.4346,-5.4344,-5.4342,-5.4341,-5.434,-5.4321,-5.4236,-5.4424,-5.4491,-5.4605,-5.4723,-5.4708,-5.484,-5.4892,-5.4961,-5.4906,-5.4672,-5.4647,-5.4621,-5.4556,-5.4905,-5.4905,-5.4905,-5.4905,-5.4519,-5.4505,-5.4694,-5.4801,-5.4905,-5.491,-5.512,-5.5164,-5.5195,-5.5227,-5.5174,-5.5086,-5.506,-5.5051,-5.5016,-5.4955,-5.5398,-5.5398,-5.5399,-5.4746,-5.4741,-5.4924,-5.4954,-5.5043,-5.5118,-5.5315,-5.5439,-5.5456,-5.5418,-5.5251,-5.5231,-5.5088,-5.5041,-5.5002,-5.4948,-5.4835,0,0]},{"header":{"parameterUnit":"m.s-1","parameterCategory":1,"la1":30.2992,"la2":30.254,"lo1":-89.0895,"lo2":-89.0443,"dy":0.0025,"dx":0.0025,"nx":19,"ny":19,"refTime":"2026-05-08T21:00:00:Z","depth":0,"parameterNumber":3,"parameterNumberName":"V-component_of_WINDS"},"data":[0,0,0,-3.5334,-3.5337,-3.5473,-3.5474,-3.565,-3.5652,0,0,0,0,0,0,0,0,0,0,0,-3.5295,-3.5297,-3.5334,-3.5337,-3.5473,-3.5474,-3.565,-3.5652,0,0,0,0,0,0,0,0,0,0,0,-3.5295,-3.5296,-3.5298,-3.5338,-3.5473,-3.5474,-3.5649,-3.5546,0,0,0,0,0,0,0,0,0,0,-3.5413,-3.538,-3.5296,-3.5298,-3.5338,-3.5473,-3.5474,-3.5541,-3.5552,-3.5589,0,-3.5623,0,-3.564,-3.5664,-3.5664,0,0,0,-3.5335,-3.537,-3.5405,-3.5298,-3.534,-3.5473,-3.5411,-3.5547,-3.556,-3.5605,-3.5626,-3.5632,-3.5643,-3.5665,-3.5666,-3.5885,-3.5886,0,0,-3.5328,-3.5321,-3.5396,-3.5413,-3.5393,-3.5407,-3.5416,-3.5555,-3.5578,-3.5627,-3.5637,-3.5646,-3.5666,-3.5667,-3.5884,-3.5885,0,0,0,-3.5307,-3.5316,-3.5347,-3.5406,-3.5431,-3.5411,-3.5421,-3.5571,-3.5582,-3.5638,-3.5648,-3.5667,-3.5669,-3.5883,-3.5884,-3.593,0,0,0,-3.5303,-3.5304,-3.5344,-3.5341,-3.5428,-3.5503,-3.5434,-3.5573,-3.5588,-3.5647,-3.5667,-3.5671,-3.5881,-3.5883,-3.5926,-3.5952,0,0,0,-3.5286,-3.5302,-3.5322,-3.534,-3.5399,-3.5501,-3.552,-3.5576,-3.5595,-3.5664,-3.5671,-3.5881,-3.5883,-3.5923,-3.5947,-3.6006,0,0,0,-3.5266,-3.5362,-3.5323,-3.5434,-3.5398,-3.5529,-3.5519,-3.5617,-3.5682,-3.5668,-3.5882,-3.5884,-3.5922,-3.5944,-3.6003,-3.6054,-3.6075,0,0,-3.5384,-3.5376,-3.5443,-3.5411,-3.5547,-3.5508,-3.5651,-3.5718,-3.5732,-3.5833,-3.5838,-3.5927,-3.5947,-3.6006,-3.6199,-3.6216,0,0,0,-3.5477,-3.5525,-3.5562,-3.5624,-3.5677,-3.5724,-3.5769,-3.5794,-3.588,-3.5782,-3.5966,-3.5978,-3.6013,-3.6037,-3.6052,-3.6081,-3.5896,-3.5895,-3.5895,-3.5634,-3.5645,-3.5754,-3.5781,-3.5841,-3.5886,-3.5935,-3.5976,-3.5971,-3.6014,-3.6043,-3.6159,-3.6188,-3.6199,-3.6229,-3.6073,-3.6073,-3.6073,-3.6073,-3.5805,-3.5873,-3.5863,-3.5965,-3.5975,-3.6061,-3.6108,-3.6101,-3.6182,-3.6139,-3.617,-3.612,-3.6217,-3.6244,-3.6077,-3.6076,-3.6076,-3.6076,-3.6075,-3.5907,-3.5941,-3.5969,-3.6058,-3.6125,-3.6149,-3.6226,-3.6234,-3.6242,-3.6273,-3.6304,-3.6303,-3.6302,-3.6288,-3.6288,-3.6289,-3.6289,-3.6289,-3.6289,-3.6001,-3.6031,-3.6095,-3.6158,-3.6198,-3.6251,-3.6296,-3.6335,-3.638,-3.6379,-3.638,-3.6368,-3.6225,-3.6187,-3.6296,-3.6295,-3.6294,-3.6293,-3.6293,-3.6167,-3.6131,-3.623,-3.6269,-3.6343,-3.6407,-3.6417,-3.6495,-3.6528,-3.6565,-3.6548,-3.6441,-3.6434,-3.6423,-3.6392,-3.6547,-3.6547,-3.6547,-3.6547,-3.6251,-3.6249,-3.635,-3.6413,-3.6475,-3.6492,-3.6602,-3.6638,-3.6669,-3.669,-3.667,-3.663,-3.6618,-3.6618,-3.6602,-3.6573,-3.677,-3.6771,-3.6771,-3.6353,-3.6357,-3.6449,-3.6479,-3.6537,-3.6586,-3.6689,-3.676,-3.6788,-3.678,-3.6706,-3.6697,-3.6632,-3.6611,-3.66,-3.6576,-3.6523,0,0]}]]